GSAT0222 (GALILEO 26)

Last updated on Fri Jun 19 2026 17:09:21 GMT+0000 (Coordinated Universal Time)

1 43565U 18060B 26170.04438053 -.00000093 00000+0 00000+0 0 9992 2 43565 57.1718 341.7337 0001999 248.0862 111.8861 1.70475706 49242
UTC large
Height (km)
Speed (km/s)
/
Latitude / Longitude
Inclination (degrees)
Orbital Period (minutes)
Azimuth
Elevation
Range (km)
Doppler Factor

Next 0 passes for location: London (51.5072 / 0.1276)

No passes found over London.
GSAT0222 (GALILEO 26)